Location: Bailen
(14.1842°N, 120.7958°E)
Time: 18:57:18
(UTC+00:00)

SKYMED 2 - Pass Details

Date: 12 January 2026
Orbit: 622 x 624 km, 97.9° (Epoch: 17 February)

Event Time Altitude Azimuth Distance (km) Brightness Sun altitude
Rises 21:13:41 0° 160° (SSE) 2,892 7.6 -16.9°
Reaches altitude 10° 21:15:54 10° 155° (SSE) 1,987 6.8 -16.4°
Maximum altitude 21:20:08 56° 77° (ENE) 742 4.2 -15.5°
Drops below altitude 10° 21:24:22 10° 359° (N) 1,989 6.0 -14.5°
Sets 21:26:35 0° 355° (N) 2,895 6.8 -14.0°
